Location: Balaclava NSW 2575, Australia
(34.4510°S, 150.4953°E)
Time: 19:47:09
(UTC+10:00)

Hubble Space Telescope - Pass Details

Date: 21 May 2021
Orbit: 535 x 539 km, 28.5° (Epoch: 19 June)

Event Time Altitude Azimuth Distance (km) Brightness Sun altitude
Rises 17:20:14 0° 293° (WNW) 2,683 7.5 -4.6°
Reaches altitude 10° 17:22:39 10° 302° (WNW) 1,794 5.2 -5.1°
Maximum altitude 17:26:24 33° 7° (N) 923 2.1 -5.8°
Drops below altitude 10° 17:30:09 10° 71° (ENE) 1,799 3.0 -6.5°
Enters shadow 17:31:31 - 77° (ENE) 2,297 3.5 -6.8°
